Location: Adrasan
(36.3319°N, 30.4314°E)
Time: 09:35:12
(UTC+00:00)

Meteor 1-10 Rocket - Pass Details

Date: 25 May 2024
Orbit: 834 x 910 km, 81.3° (Epoch: 16 June)

Event Time Altitude Azimuth Distance (km) Brightness Sun altitude
Exits shadow 19:43:04 14° 220° (SW) 2,267 6.3 -24.6°
Maximum altitude 19:47:37 38° 284° (WNW) 1,291 5.4 -25.1°
Drops below altitude 10° 19:52:52 10° 352° (N) 2,489 7.5 -25.6°
Sets 19:55:27 0° 0° (N) 3,418 8.3 -25.9°
